Regional Weather Roundup
Issued by NWS

Home | Current Version | Previous Version | Graphics & Text | Print | Product List | Glossary On
Versions: 1 2 3 4 5 6 7 8 9 10 11 12 13 14 15 16 17 18 19 20 21 22 23 24 25 26 27 28 29 30 31 32 33 34 35 36 37 38 39 40 41 42 43 44 45 46 47 48 49 50
000
ASUS43 KIND 170309
RWRIN

WEATHER ROUNDUP FOR INDIANA
NATIONAL WEATHER SERVICE INDIANAPOLIS IN
1100 PM EDT MON OCT 16 2017

NOTE: "FAIR" INDICATES FEW OR NO CLOUDS BELOW 12,000 FEET WITH NO
SIGNIFICANT WEATHER AND/OR OBSTRUCTIONS TO VISIBILITY.

* - STATION DOES NOT REPORT WEATHER SUCH AS PRECIPITATION OR FOG.

+ - STATION NOT QUALITY CONTROLLED BY THE NATIONAL WEATHER SERVICE.
    USE DATA WITH CAUTION...ESPECIALLY DEWPOINT AND RELATIVE
    HUMIDITY OBSERVATIONS.

INZ001>003-010>013-019-020-170400-
NORTHWEST INDIANA

CITY           SKY/WX    TMP DP  RH WIND       PRES   REMARKS
GARY /AIRPORT/ CLEAR     45  43  93 SW6       30.24S
KNOX *+        CLEAR     41  37  87 S3        30.25S
LA PORTE +     CLEAR     43  41  93 SW3       30.25S
MICHIGAN CITY+ CLEAR     43  43 100 CALM      30.24S
MONTICELLO +   CLEAR     47  38  70 S5        30.27R
RENSSELAER +   CLEAR     46  32  57 S3        30.27R
VALPARAISO     CLEAR     49  39  68 CALM      30.25S

$$

LMZ046-743>745-170400-
SOUTHERN LAKE MICHIGAN

STATION/POSITION TIME  TEMP    WIND        PRES    WAVE
                       AIR SEA DIR/SP/G            HT
                 (UTC) (F)     (DEG/KT/KT) (MB)    (FT)
BURNS HARBOR     0240   52     180/  8/  9 1024.0S
MICHIGAN CITY    0240   53     170/  7/  9   N/A
5NW MICH CITY    0300   55 58  200/ 10/ 12   N/A     2

$$

INZ004-005-014>016-021>024-170400-
NORTH CENTRAL INDIANA

CITY           SKY/WX    TMP DP  RH WIND       PRES   REMARKS
GOSHEN         CLEAR     43  39  86 S5        30.25S
LOGANSPORT +   CLEAR     45  37  76 S3        30.28S
PERU/GRISSOM   CLEAR     45  38  78 S6        30.27R
SOUTH BEND     CLEAR     44  41  89 S7        30.24F
WARSAW +       CLEAR     45  37  76 CALM      30.26S

$$

INZ006>009-017-018-025>027-170400-
NORTHEAST INDIANA

CITY           SKY/WX    TMP DP  RH WIND       PRES   REMARKS
AUBURN +       CLEAR     43  39  87 CALM      30.27S
FORT WAYNE     CLEAR     46  37  71 CALM      30.28R
HUNTINGTON +   CLEAR     48  39  71 CALM      30.28R
KENDALLVILLE + CLEAR     43  42  95 S3        30.26S

$$

INZ028-029-035-036-043>045-051>053-170400-
WEST CENTRAL INDIANA

CITY           SKY/WX    TMP DP  RH WIND       PRES   REMARKS
CRAWFORDSVL +  CLEAR     45  37  76 S5        30.30R
GREENCASTLE +  CLEAR     43  37  81 CALM      30.31S
LAFAYETTE      CLEAR     45  40  82 CALM      30.28R
TERRE HAUTE    CLEAR     42  39  89 CALM      30.31R

$$

INZ030>032-037>040-046>048-054>057-064-065-170400-
CENTRAL INDIANA

CITY           SKY/WX    TMP DP  RH WIND       PRES   REMARKS
CP ATTERBURY + CLEAR     41  39  93 CALM      30.32S
FISHERS *+     CLEAR     43  43 100 CALM      30.30S
FRANKFORT +    CLEAR     48  40  74 SW5       30.30R
GREENWOOD *+   CLEAR     46  43  90 CALM      30.31S
INDIANAPOLIS   CLEAR     47  39  74 SW5       30.31R
-EAGLE CREEK   CLEAR     47  39  74 S3        30.29S
KOKOMO +       CLEAR     45  39  79 S6        30.29R
MARION +       CLEAR     45  37  76 S3        30.30R
MT COMFORT *+  CLEAR     43  43 100 S5        30.30S
SHELBYVILLE    CLEAR     44  39  82 SE3       30.30S
ZIONSVILLE +   CLEAR     44  39  83 CALM      30.30S

$$

INZ033-034-041-042-049-050-058-059-170400-
EAST CENTRAL INDIANA

CITY           SKY/WX    TMP DP  RH WIND       PRES   REMARKS
MUNCIE         CLEAR     49  38  65 S5        30.30R
RICHMOND +     CLEAR     41  37  87 S5        30.31S

$$

INZ060-061-067>069-081>083-085>088-170400-
SOUTHWEST INDIANA

CITY           SKY/WX    TMP DP  RH WIND       PRES   REMARKS
EVANSVILLE     CLEAR     47  42  83 CALM      30.34R
HUNTINGBURG +  CLEAR     45  41  86 CALM      30.34R
WASHINGTON +   CLEAR     42  39  89 CALM      30.32S

$$

INZ062-063-066-070>080-084-089>092-170400-
SOUTH CENTRAL AND SOUTHEAST INDIANA

CITY           SKY/WX    TMP DP  RH WIND       PRES   REMARKS
BEDFORD +      CLEAR     45  37  76 CALM      30.32R
BLOOMINGTON    CLEAR     43  38  82 CALM      30.31S
MADISON *+     CLEAR     43  39  87 CALM      30.34S
NORTH VERNON + CLEAR     41  39  93 CALM      30.33R
SEYMOUR +      CLEAR     43  41  93 CALM      30.32S

$$





USA.gov is the U.S. government's official web portal to all federal, state and local government web resources and services.